GW5739 Weather Reports


Display with metric or nautical units.
time (UTC)temp
F
wind
direction
speed
MPH
gust
MPH
rain 1hr
in
rain 24hr
in
rain mn
in
humidity
%
barometer
mb
20260507001052 59 129 1.0 8.0 0.00 0.00 0.00 74 1020.5
20260507000552 58 185 2.0 6.0 0.00 0.00 0.00 75 1020.4
20260507000054 58 162 2.0 7.0 0.00 0.00 0.00 75 1020.5
20260506235552 58 162 3.0 7.0 0.00 0.00 0.00 75 1020.5
20260506235052 58 264 3.0 7.0 0.00 0.00 0.00 75 1020.6
20260506234617 58 182 2.0 8.0 0.00 0.00 0.00 75 1020.6
20260506234053 58 195 2.0 8.0 0.00 0.00 0.00 75 1020.5
20260506233552 59 130 0.0 5.0 0.00 0.00 0.00 76 1020.6
20260506233053 59 160 1.0 5.0 0.00 0.00 0.00 76 1020.6
20260506232556 59 266 1.0 7.0 0.00 0.00 0.00 76 1020.5
20260506232053 59 89 1.0 7.0 0.00 0.00 0.00 76 1020.5
20260506231556 59 300 2.0 7.0 0.00 0.00 0.00 77 1020.5
20260506231056 60 0 1.0 5.0 0.00 0.00 0.00 75 1020.5
20260506230555 60 119 1.0 7.0 0.00 0.00 0.00 75 1020.6
20260506230058 60 226 0.0 8.0 0.00 0.00 0.00 76 1020.5
20260506225555 59 167 2.0 8.0 0.00 0.00 0.00 75 1020.5
20260506225052 59 134 2.0 11.0 0.00 0.00 0.00 75 1020.6
20260506224557 59 190 2.0 11.0 0.00 0.00 0.00 76 1020.6
20260506224052 59 60 4.0 8.0 0.00 0.00 0.00 74 1020.5
20260506223555 59 0 1.0 7.0 0.00 0.00 0.00 75 1020.6
20260506223100 59 94 2.0 8.0 0.00 0.00 0.00 75 1020.6
20260506222552 59 127 3.0 8.0 0.00 0.00 0.00 76 1020.7
20260506222052 60 195 2.0 8.0 0.00 0.00 0.00 76 1020.8
20260506221557 60 0 0.0 4.0 0.00 0.00 0.00 77 1020.8
20260506221053 59 50 1.0 4.0 0.00 0.00 0.00 76 1020.8
20260506220553 60 134 0.0 4.0 0.00 0.00 0.00 76 1020.9
20260506220055 59 148 1.0 4.0 0.00 0.00 0.00 78 1021.0
20260506215553 60 210 1.0 5.0 0.00 0.00 0.00 77 1020.9
20260506215052 60 321 1.0 5.0 0.00 0.00 0.00 76 1020.8
20260506214555 60 292 1.0 6.0 0.00 0.00 0.00 77 1020.7
20260506214053 60 310 1.0 8.0 0.00 0.00 0.00 77 1020.7
20260506213555 60 185 2.0 8.0 0.00 0.00 0.00 76 1020.7
20260506213058 60 82 2.0 8.0 0.00 0.00 0.00 76 1020.8
20260506212554 60 280 1.0 6.0 0.00 0.00 0.00 76 1020.8
20260506212054 60 121 1.0 5.0 0.00 0.00 0.00 76 1020.8
20260506211558 60 182 1.0 7.0 0.00 0.00 0.00 78 1020.9
20260506211052 60 277 2.0 9.0 0.00 0.00 0.00 78 1020.9
20260506210552 59 134 3.0 9.0 0.00 0.00 0.00 78 1020.9
20260506210104 59 316 2.0 8.0 0.00 0.00 0.00 79 1020.8
20260506205552 59 127 1.0 6.0 0.00 0.00 0.00 80 1020.8
20260506205053 58 202 2.0 6.0 0.00 0.00 0.00 81 1020.8
20260506204559 58 148 0.0 7.0 0.00 0.00 0.00 82 1020.8
20260506204052 58 98 0.0 7.0 0.00 0.00 0.00 82 1020.7
20260506203552 58 110 0.0 5.0 0.00 0.00 0.00 83 1020.8
20260506203056 57 188 1.0 5.0 0.00 0.00 0.00 83 1020.8
20260506202556 57 0 1.0 3.0 0.00 0.00 0.00 84 1020.7
20260506202055 58 114 0.0 5.0 0.00 0.00 0.00 84 1020.7
20260506201559 57 0 1.0 5.0 0.00 0.00 0.00 84 1020.7
20260506201052 57 122 0.0 3.0 0.00 0.00 0.00 85 1020.8
20260506200556 57 199 0.0 3.0 0.00 0.00 0.00 84 1020.8
20260506200108 56 0 0.0 4.0 0.00 0.00 0.00 86 1020.8
20260506195556 56 189 1.0 4.0 0.00 0.00 0.00 85 1020.8
20260506195053 56 0 1.0 3.0 0.00 0.00 0.00 86 1020.8
20260506194614 56 130 1.0 4.0 0.00 0.00 0.00 85 1020.8
20260506194053 56 0 0.0 4.0 0.00 0.00 0.00 86 1020.6
20260506193552 56 207 1.0 5.0 0.00 0.00 0.00 85 1020.6
20260506193053 56 0 1.0 5.0 0.00 0.00 0.00 85 1020.7
20260506192552 56 85 1.0 5.0 0.00 0.00 0.00 85 1020.6
20260506192056 56 0 1.0 5.0 0.00 0.00 0.00 86 1020.6
20260506191553 56 217 1.0 5.0 0.00 0.00 0.00 86 1020.6
20260506191055 56 107 1.0 4.0 0.00 0.00 0.00 86 1020.5
20260506190553 56 224 1.0 4.0 0.00 0.00 0.00 87 1020.6
20260506190055 56 0 0.0 6.0 0.00 0.00 0.00 87 1020.6
20260506185552 56 194 1.0 6.0 0.00 0.00 0.00 86 1020.4
20260506185056 56 87 3.0 6.0 0.00 0.00 0.00 85 1020.4
20260506184602 56 82 0.0 4.0 0.00 0.00 0.00 86 1020.5
20260506184109 56 173 1.0 6.0 0.00 0.00 0.00 86 1020.5
20260506183556 56 200 2.0 6.0 0.00 0.00 0.00 87 1020.5
20260506183103 56 133 2.0 4.0 0.00 0.00 0.00 87 1020.3
20260506182552 55 198 0.0 5.0 0.00 0.00 0.00 89 1020.4
20260506182052 55 0 1.0 5.0 0.00 0.00 0.00 88 1020.3
20260506181559 55 124 2.0 5.0 0.00 0.00 0.00 88 1020.2
20260506181053 55 152 0.0 3.0 0.00 0.00 0.00 88 1020.3
20260506180555 55 0 1.0 4.0 0.00 0.00 0.00 88 1020.4
20260506180104 55 120 1.0 4.0 0.00 0.00 0.00 88 1020.2
20260506175552 55 145 1.0 4.0 0.00 0.00 0.00 87 1020.2
20260506175052 55 125 0.0 3.0 0.00 0.00 0.00 87 1020.3
20260506174602 55 89 0.0 4.0 0.00 0.00 0.00 87 1020.2
20260506174053 55 103 0.0 4.0 0.00 0.00 0.00 88 1020.0
20260506173556 55 224 1.0 4.0 0.00 0.00 0.00 88 1019.9
20260506173112 55 141 0.0 2.0 0.00 0.00 0.00 88 1019.8
20260506172554 55 134 0.0 2.0 0.00 0.00 0.00 89 1019.9
20260506172053 55 0 0.0 3.0 0.00 0.00 0.00 89 1020.0
20260506171601 55 141 1.0 3.0 0.00 0.00 0.00 88 1020.0
20260506171053 55 127 0.0 2.0 0.00 0.00 0.00 89 1020.1
20260506170553 55 0 0.0 2.0 0.00 0.00 0.00 89 1020.2
20260506170056 54 0 0.0 3.0 0.00 0.00 0.00 89 1020.1
20260506165553 54 124 0.0 3.0 0.00 0.00 0.00 90 1020.0
20260506165053 54 130 0.0 2.0 0.00 0.00 0.00 90 1020.0
20260506164601 54 141 0.0 2.0 0.00 0.00 0.00 90 1020.1
20260506164053 54 208 0.0 2.0 0.00 0.00 0.00 90 1020.2
20260506163553 54 0 0.0 2.0 0.00 0.00 0.00 91 1020.1
20260506163057 54 0 0.0 1.0 0.00 0.00 0.00 91 1020.2
20260506162553 54 181 0.0 1.0 0.00 0.00 0.00 92 1020.1
20260506162056 54 0 0.0 1.0 0.00 0.00 0.00 92 1020.0
20260506161605 53 0 0.0 1.0 0.00 0.00 0.00 92 1019.9
20260506161053 53 0 0.0 1.0 0.00 0.00 0.00 92 1019.9
20260506160553 53 0 0.0 0.0 0.00 0.00 0.00 92 1019.9
20260506160057 53 0 0.0 0.0 0.00 0.00 0.00 92 1020.0
20260506155552 53 0 0.0 0.0 0.00 0.00 0.00 93 1019.9
20260506155055 53 0 0.0 2.0 0.00 0.00 0.00 93 1019.8
20260506154557 53 0 0.0 2.0 0.00 0.00 0.00 93 1019.7
20260506154053 53 185 0.0 1.0 0.00 0.00 0.00 93 1019.6
20260506153554 53 0 0.0 1.0 0.00 0.00 0.00 93 1019.6
20260506153058 53 0 0.0 1.0 0.00 0.00 0.00 93 1019.7
20260506152552 53 0 0.0 3.0 0.00 0.00 0.00 93 1019.7
20260506152052 53 0 0.0 3.0 0.00 0.00 0.00 92 1019.7
20260506151607 53 148 1.0 3.0 0.00 0.00 0.00 92 1019.7
20260506151052 53 136 0.0 1.0 0.00 0.00 0.00 92 1019.8
20260506150553 53 0 0.0 2.0 0.00 0.00 0.00 92 1019.9
20260506150054 53 0 1.0 3.0 0.00 0.00 0.00 92 1020.0
20260506145553 53 0 0.0 3.0 0.00 0.00 0.00 92 1019.9
20260506145053 53 101 1.0 5.0 0.00 0.00 0.00 92 1019.7
20260506144557 53 124 2.0 5.0 0.00 0.00 0.00 92 1019.6
20260506144053 53 0 0.0 2.0 0.00 0.00 0.00 92 1019.6
20260506143553 53 0 0.0 2.0 0.00 0.00 0.00 92 1019.6
20260506143055 53 136 0.0 2.0 0.00 0.00 0.00 92 1019.6
20260506142553 52 0 0.0 0.0 0.00 0.00 0.00 93 1019.7
20260506142052 52 0 0.0 0.0 0.00 0.00 0.00 93 1019.6
20260506141552 52 0 0.0 0.0 0.00 0.00 0.00 93 1019.6
20260506141052 52 0 0.0 0.0 0.00 0.00 0.00 93 1019.5
20260506140555 52 0 0.0 0.0 0.00 0.00 0.00 93 1019.5
20260506140104 52 0 0.0 0.0 0.00 0.00 0.00 93 1019.5
20260506135554 52 0 0.0 1.0 0.00 0.00 0.00 94 1019.5
20260506135052 52 0 0.0 1.0 0.00 0.00 0.00 94 1019.4
20260506134553 52 0 0.0 1.0 0.00 0.00 0.00 94 1019.6
20260506134053 52 0 0.0 0.0 0.00 0.00 0.00 94 1019.6
20260506133554 52 0 0.0 0.0 0.00 0.00 0.00 94 1019.5
20260506133058 52 0 0.0 0.0 0.00 0.00 0.00 94 1019.6
20260506132553 52 0 0.0 0.0 0.00 0.00 0.00 94 1019.6
20260506132053 52 0 0.0 0.0 0.00 0.00 0.00 94 1019.4
20260506131600 52 0 0.0 0.0 0.00 0.00 0.00 94 1019.5
20260506131053 52 0 0.0 0.0 0.00 0.00 0.00 94 1019.5
20260506130553 52 0 0.0 0.0 0.00 0.00 0.00 94 1019.3
20260506130118 52 0 0.0 0.0 0.00 0.00 0.00 94 1019.3
20260506125555 52 0 0.0 0.0 0.00 0.00 0.00 94 1019.1
20260506125053 52 0 0.0 0.0 0.00 0.00 0.00 95 1019.1
20260506124553 52 0 0.0 0.0 0.00 0.00 0.00 94 1019.1
20260506124053 52 0 0.0 0.0 0.00 0.00 0.00 95 1018.9
20260506123556 52 0 0.0 0.0 0.00 0.00 0.00 95 1018.9
20260506123054 52 0 0.0 0.0 0.00 0.00 0.00 95 1018.9
20260506122553 52 0 0.0 0.0 0.00 0.00 0.00 95 1019.0
20260506122053 52 0 0.0 0.0 0.00 0.00 0.00 95 1018.9
20260506121553 52 0 0.0 0.0 0.00 0.00 0.00 95 1019.0
20260506121053 52 0 0.0 1.0 0.00 0.00 0.00 95 1018.9
20260506120553 52 0 0.0 2.0 0.00 0.00 0.00 95 1019.0
20260506115553 52 0 0.0 1.0 0.00 0.00 0.00 95 1018.9
20260506115052 52 0 0.0 1.0 0.00 0.00 0.00 95 1018.8
20260506114602 52 0 0.0 1.0 0.00 0.00 0.00 95 1018.8
20260506114052 52 0 0.0 0.0 0.00 0.00 0.00 95 1018.8
20260506113553 52 0 0.0 1.0 0.00 0.00 0.00 95 1018.8
20260506113106 52 0 0.0 1.0 0.00 0.00 0.00 95 1018.7
20260506112554 52 0 0.0 1.0 0.00 0.00 0.00 95 1018.7
20260506112054 51 0 0.0 0.0 0.00 0.00 0.00 95 1018.7
20260506111555 51 0 0.0 0.0 0.00 0.00 0.00 95 1018.6
20260506111053 51 0 0.0 0.0 0.00 0.00 0.00 95 1018.5
20260506110553 51 0 0.0 0.0 0.00 0.00 0.00 95 1018.4
20260506110103 51 0 0.0 0.0 0.00 0.00 0.00 95 1018.3
20260506105554 51 0 0.0 0.0 0.00 0.00 0.00 95 1018.3
20260506105053 50 0 0.0 0.0 0.00 0.00 0.00 95 1018.3
20260506104616 50 0 0.0 0.0 0.00 0.00 0.00 95 1018.3
20260506104053 50 0 0.0 0.0 0.00 0.00 0.00 95 1018.2
20260506103554 50 0 0.0 0.0 0.00 0.00 0.00 95 1018.1
20260506103056 50 0 0.0 0.0 0.00 0.00 0.00 95 1018.1
20260506102555 50 0 0.0 0.0 0.00 0.00 0.00 95 1018.1
20260506102054 50 0 0.0 0.0 0.00 0.00 0.00 95 1018.1
20260506101605 49 0 0.0 0.0 0.00 0.00 0.00 95 1018.1
20260506101053 49 0 0.0 0.0 0.00 0.00 0.00 95 1018.0
20260506100557 49 0 0.0 0.0 0.00 0.00 0.00 95 1017.9
20260506100057 49 0 0.0 0.0 0.00 0.00 0.00 95 1017.8
20260506095556 49 0 0.0 0.0 0.00 0.00 0.00 95 1017.8
20260506095053 49 0 0.0 0.0 0.00 0.00 0.00 95 1017.8
20260506094559 48 0 0.0 0.0 0.00 0.00 0.00 94 1017.7
20260506094052 48 0 0.0 0.0 0.00 0.00 0.00 94 1017.7
20260506093554 48 0 0.0 0.0 0.00 0.00 0.00 94 1017.7
20260506093057 48 0 0.0 0.0 0.00 0.00 0.00 94 1017.7
20260506092554 48 0 0.0 0.0 0.00 0.00 0.00 94 1017.8
20260506092055 48 0 0.0 0.0 0.00 0.00 0.00 94 1017.7
20260506091554 49 0 0.0 0.0 0.00 0.00 0.00 94 1017.7
20260506091055 49 0 0.0 0.0 0.00 0.00 0.00 94 1017.7
20260506090557 49 0 0.0 0.0 0.00 0.00 0.00 95 1017.7
20260506090051 49 0 0.0 0.0 0.00 0.00 0.00 94 1017.7
20260506085553 49 0 0.0 0.0 0.00 0.00 0.00 94 1017.7
20260506085053 49 0 0.0 0.0 0.00 0.00 0.00 94 1017.5
20260506084553 49 0 0.0 0.0 0.00 0.00 0.00 94 1017.5
20260506084054 49 0 0.0 0.0 0.00 0.00 0.00 94 1017.4
20260506083552 49 0 0.0 0.0 0.00 0.00 0.00 94 1017.3
20260506083054 49 0 0.0 0.0 0.00 0.00 0.00 94 1017.4
20260506082558 49 0 0.0 0.0 0.00 0.00 0.00 95 1017.5
20260506082055 49 0 0.0 0.0 0.00 0.00 0.00 94 1017.3
20260506081552 49 0 0.0 0.0 0.00 0.00 0.00 94 1017.3
20260506081053 49 0 0.0 0.0 0.00 0.00 0.00 94 1017.3
20260506080554 49 0 0.0 0.0 0.00 0.00 0.00 94 1017.2
20260506073100 50 0 0.0 0.0 0.00 0.00 0.00 94 1016.9
20260506072553 50 0 0.0 0.0 0.00 0.00 0.00 93 1017.0
20260506072057 50 0 0.0 0.0 0.00 0.00 0.00 93 1017.0
20260506071609 50 0 0.0 0.0 0.00 0.00 0.00 93 1017.0
20260506071056 50 0 0.0 0.0 0.00 0.00 0.00 93 1016.9
20260506070553 50 0 0.0 0.0 0.00 0.00 0.00 93 1016.9
20260506070103 50 0 0.0 0.0 0.00 0.00 0.00 93 1016.8
20260506062053 51 0 0.0 0.0 0.00 0.00 0.00 93 1016.7
20260506061554 51 0 0.0 0.0 0.00 0.00 0.00 92 1016.7
20260506061053 51 0 0.0 0.0 0.00 0.00 0.00 93 1016.6
20260506060557 51 0 0.0 0.0 0.00 0.00 0.00 93 1016.6
20260506051056 52 0 0.0 0.0 0.00 0.00 0.00 92 1016.0
20260506050554 52 0 0.0 0.0 0.00 0.00 0.00 92 1015.9
20260506045054 53 0 0.0 0.0 0.00 0.00 0.00 91 1015.9
20260506044559 53 0 0.0 0.0 0.00 0.00 0.00 91 1015.9
20260506044053 53 0 0.0 0.0 0.00 0.00 0.00 90 1015.9
20260506043553 53 0 0.0 0.0 0.00 0.00 0.00 90 1015.9
20260506043054 53 0 0.0 0.0 0.00 0.00 0.00 90 1015.8
20260506042553 53 0 0.0 0.0 0.00 0.00 0.00 89 1015.7
20260506042052 54 0 0.0 0.0 0.00 0.00 0.00 89 1015.6
20260506041603 54 0 0.0 0.0 0.00 0.00 0.00 89 1015.6
20260506041053 54 0 0.0 0.0 0.00 0.00 0.00 88 1015.6
20260506040553 55 0 0.0 0.0 0.00 0.00 0.00 88 1015.5
20260506040055 55 0 0.0 0.0 0.00 0.00 0.00 88 1015.5
20260506035553 56 0 0.0 0.0 0.00 0.00 0.00 87 1015.5
20260506035053 56 0 0.0 0.0 0.00 0.00 0.00 87 1015.5
20260506034555 56 0 0.0 0.0 0.00 0.00 0.00 87 1015.5
20260506034053 56 0 0.0 0.0 0.00 0.00 0.00 86 1015.4
20260506033556 57 0 0.0 0.0 0.00 0.00 0.00 86 1015.5
20260506033110 57 0 0.0 0.0 0.00 0.00 0.00 85 1015.3
20260506032554 57 0 0.0 0.0 0.00 0.00 0.00 85 1015.4
20260506032054 58 0 0.0 0.0 0.00 0.00 0.00 85 1015.3
20260506031556 58 0 0.0 0.0 0.00 0.00 0.00 85 1015.3
20260506031056 59 0 0.0 0.0 0.00 0.00 0.00 85 1015.3
20260506030557 59 0 0.0 0.0 0.00 0.00 0.00 84 1015.2
20260506030053 60 0 0.0 0.0 0.00 0.00 0.00 83 1015.2
20260506025553 60 0 0.0 0.0 0.00 0.00 0.00 83 1015.2
20260506025053 61 0 0.0 0.0 0.00 0.00 0.00 82 1015.3
20260506024631 61 0 0.0 0.0 0.00 0.00 0.00 81 1015.2
20260506024053 62 0 0.0 0.0 0.00 0.00 0.00 81 1015.2
20260506023554 62 0 0.0 0.0 0.00 0.00 0.00 79 1015.2
20260506023100 63 0 0.0 0.0 0.00 0.00 0.00 78 1015.1
20260506022554 63 0 0.0 0.0 0.00 0.00 0.00 78 1015.1
20260506022054 63 0 0.0 1.0 0.00 0.00 0.00 76 1015.2
20260506021557 63 0 0.0 2.0 0.00 0.00 0.00 75 1015.2
20260506021056 63 126 0.0 2.0 0.00 0.00 0.00 75 1015.2
20260506020553 62 0 1.0 2.0 0.00 0.00 0.00 75 1015.2
20260506020051 62 0 0.0 2.0 0.00 0.00 0.00 76 1015.2
20260506015559 62 160 1.0 2.0 0.00 0.00 0.00 76 1015.2
20260506015054 62 105 0.0 2.0 0.00 0.00 0.00 76 1015.2
20260506014557 63 203 1.0 4.0 0.00 0.00 0.00 75 1015.2
20260506014056 63 193 0.0 4.0 0.00 0.00 0.00 75 1015.2
20260506013553 63 101 1.0 4.0 0.00 0.00 0.00 76 1015.2
20260506013053 63 0 0.0 2.0 0.00 0.00 0.00 76 1015.1
20260506012553 63 146 1.0 2.0 0.00 0.00 0.00 75 1015.1
20260506012054 63 157 0.0 2.0 0.00 0.00 0.00 77 1015.1
20260506011552 63 193 1.0 2.0 0.00 0.00 0.00 75 1015.2
20260506011054 63 226 1.0 4.0 0.00 0.00 0.00 75 1015.1
20260506010555 63 0 0.0 4.0 0.00 0.00 0.00 77 1015.2
20260506010054 62 154 1.0 4.0 0.00 0.00 0.00 76 1015.3
20260506005554 62 201 1.0 3.0 0.00 0.00 0.00 77 1015.2
20260506005053 62 0 0.0 3.0 0.00 0.00 0.00 78 1015.3
20260506004556 62 0 0.0 4.0 0.00 0.00 0.00 78 1015.3
20260506004054 62 133 1.0 4.0 0.00 0.00 0.00 77 1015.3
20260506003553 62 193 0.0 3.0 0.00 0.00 0.00 78 1015.3
20260506003053 62 162 2.0 3.0 0.00 0.00 0.00 77 1015.3
20260506002554 61 227 1.0 3.0 0.00 0.00 0.00 78 1015.3
20260506002054 61 0 0.0 3.0 0.00 0.00 0.00 78 1015.5
20260506001614 61 233 0.0 3.0 0.00 0.00 0.00 80 1015.5